Flag for U.S.A. Weather past 2 weeks in Babylon, New York, U.S.A.

Now
75 °F

Sunny.


Feels Like: 77 °F
Forecast: 66 / 77 °F
Wind: 6 mph from North

Location: Republic Airport

Current Time: Jul 4, 2015 at 7:08:52 PM

Latest Report: Jul 4, 2015 at 5:53 PM


Visibility: 10 mi

Pressure: 29.94 "Hg

Humidity: 60%

Dew point: 60 °F

Location of BabylonLocation

Historic Weather in Babylon — Graph

°F

Babylon temperature yesterday

Maximum temperature yesterday: 81 °F (at 3:53 PM)
Minimum temperature yesterday: 63 °F (at 5:53 AM)
Average temperature yesterday: 72 °F

Past Weeks' High & Low Weather Summary

 TemperatureHumidityPressure
High88 °F (Jun 21, 3:53 PM)97% (Jun 21, 7:53 AM)30.13 "Hg (Jun 21, 7:53 AM)
Low61 °F (Jun 27, 9:53 PM)32% (Jul 3, 2:53 PM)29.64 "Hg (Jun 28, 10:53 AM)
Average73 °F68%29.91 "Hg
* Reported Jun 19 5:53 PM — Jul 4 5:53 PM, Babylon, Weather by CustomWeather, © 2015

Note: Actual official high and low records may vary slightly from our data, if they occured in-between our weather recording intervals... More about our weather records

Advertising

Babylon weather history for previous 24 hours

 ConditionsComfort  
Time TempWeatherWind HumidityBarometerVisibility
5:53 PM
Sat, Jul 4
75 °FSunny.6 mph60%29.94 "Hg10 mi
4:53 PM74 °FSunny.8 mph62%29.93 "Hg10 mi
3:53 PM70 °FPartly sunny.10 mph76%29.95 "Hg10 mi
2:53 PM71 °FMore clouds than sun.8 mph61%29.94 "Hg10 mi
1:53 PM72 °FMostly cloudy.12 mph66%29.96 "Hg10 mi
12:53 PM74 °FPartly sunny.9 mph62%29.95 "Hg10 mi
11:53 AM74 °FPartly sunny.6 mph52%29.95 "Hg10 mi
10:53 AM73 °FPartly sunny.6 mph59%29.95 "Hg10 mi
9:53 AM72 °FScattered clouds.8 mph61%29.95 "Hg10 mi
8:53 AM71 °FScattered clouds.8 mph63%29.95 "Hg10 mi
7:53 AM70 °FSunny.6 mph71%29.95 "Hg10 mi
6:53 AM68 °FScattered clouds.3 mph78%29.95 "Hg10 mi
5:53 AM68 °FClear.3 mph76%29.95 "Hg10 mi
4:53 AM68 °FPassing clouds.No wind76%29.96 "Hg10 mi
3:53 AM69 °FClear.No wind73%29.96 "Hg10 mi
2:53 AM70 °FClear.3 mph68%29.98 "Hg10 mi
1:53 AM70 °FClear.No wind68%29.98 "Hg10 mi
12:53 AM69 °FClear.No wind73%29.99 "Hg10 mi
11:53 PM
Fri, Jul 3
69 °FClear.6 mph70%29.99 "Hg10 mi
10:53 PM70 °FClear.5 mph68%29.99 "Hg10 mi
9:53 PM70 °FClear.6 mph66%29.99 "Hg10 mi
8:53 PM71 °FSunny.8 mph61%29.98 "Hg10 mi
7:53 PM73 °FSunny.6 mph53%29.97 "Hg10 mi
Weather by CustomWeather, © 2015

See weather overviewHow to use our weather pages